sat.trackr.live / text

‹ back to catalog

STARLINK-35206

NORAD 65614 · 2025-207Y

PAYLOAD ACTIVE UNKNOWN

§ Identity

Operator
Country
US
Launch date
2025-09-13
Launch site
AFWTR
Launch vehicle
Mass (kg)
RCS (m²)

Purposes: comms

External: N2YO · Heavens-Above · Gunter

§ Orbital elements

Epoch: 2026-09-20T22:00:03.000096Z

Period
93.91 min
Inclination
97.2853°
Eccentricity
0.0001621
Mean motion
15.33410244 rev/d
Perigee alt
464.5 km
Apogee alt
466.8 km
Semi-major
6,843.8 km
B*
7.2081e-5
RAAN
326.3797°
Arg perigee
88.1957°
Mean anomaly
57.2536°
Rev number
579

§ Raw data

STARLINK-352061 65614U 25207Y   26263.91670139  .00002250  00000+0  72081-4 0  99932 65614  97.2853 326.3797 0001621  88.1957  57.2536 15.33410244  5799

JSON: /api/v1/satellites/65614 · /tle

For live sub-satellite position, see the globe view (requires WebGL).

§ Visibility from observer

Set your observer location to see the next 7 days of passes ≥ 10°. The values pass through the URL so the page stays shareable.

No JS? Fill the form by hand. The geolocation button needs JavaScript.